Starlink 1134

operational
NORAD ID: 45048 Int'l Des: 2020-006 Owner: SPXS Country: US Constellation: starlink
LEOCIRCULAR

About Starlink 1134

Description loading...

Live Position

Loading 3D Globe...

Upcoming Passes

Altitude History

Altitude vs Time

uPlot chart will show altitude changes over time

Two-Line Element Set

1 45048U 20006E 26036.28119276 .00147523 00000-0 36200-2 0 9997
2 45048 53.0350 31.9802 0007130 70.5634 289.6139 15.39658901332146
Epoch: Feb 5, 2026 • Age: 6 hours

Current Status

Altitude 458.7 km
Velocity 7.64 km/s
Sub-Earth Point -26.85°S, 87.75°W
Launch Date Jan 29, 2020
Age 6 years
Type internet

Technical Details

Classification Payload
Mass 260.00 kg
Dry Mass 248.00 kg
Total Mass 260.00 kg
Length 0.20 m
Diameter 2.80 m
Span 9.00 m
Shape Box + pan
Manufacturer SPXS
Bus Type Starlink
Phase Status In Orbit
Owner/State SPXS/US

Large Constellations

Loading constellations...